Printer-friendly version

IAU Minor Planet Center

Minor Planet Center

MPEC 2008-B64 : 2008 BD15

The following Minor Planet Electronic Circular may be linked-to from your own Web pages, but must not otherwise be redistributed electronically.


Read MPEC 2008-B63 Read MPEC 2008-B65


M.P.E.C. 2008-B64                                Issued 2008 Jan. 30, 16:48 UT

     The Minor Planet Electronic Circulars contain information on unusual
         minor planets and routine data on comets.  They are published
   on behalf of Commission 20 of the International Astronomical Union by the
          Minor Planet Center, Smithsonian Astrophysical Observatory,
                          Cambridge, MA 02138, U.S.A.

             Prepared using the Tamkin Foundation Computer Network

                              MPC@CFA.HARVARD.EDU
          URL http://www.cfa.harvard.edu/iau/mpc.html  ISSN 1523-6714

                                   2008 BD15

Observations:
     K08B15D* C2008 01 30.31301 08 59 35.73 +15 21 37.1          16.4 V EB064703
     K08B15D  C2008 01 30.32044 08 59 34.29 +15 23 18.0          16.9 V EB064703
     K08B15D  C2008 01 30.32788 08 59 32.96 +15 25 00.6          16.9 V EB064703
     K08B15D  C2008 01 30.33531 08 59 31.63 +15 26 42.7          17.0 V EB064703
     K08B15D  C2008 01 30.37171 08 59 25.15 +15 35 03.8          16.9 V EB064703
     K08B15D  C2008 01 30.37257 08 59 24.97 +15 35 14.8          16.9 V EB064703
     K08B15D  C2008 01 30.37343 08 59 24.82 +15 35 26.8          16.8 V EB064703
     K08B15D  C2008 01 30.37427 08 59 24.68 +15 35 38.6          16.8 V EB064703
     K08B15D  C2008 01 30.38349 08 59 22.39 +15 37 37.3          16.8 R EB064734
     K08B15D  C2008 01 30.38476 08 59 22.15 +15 37 54.5          16.8 R EB064734
     K08B15D  C2008 01 30.38808 08 59 21.58 +15 38 40.1          16.8 R EB064734
     K08B15D  C2008 01 30.43971 08 59 13.12 +15 50 39.0          16.9 V EB064703
     K08B15D  C2008 01 30.44058 08 59 12.94 +15 50 51.0          16.9 V EB064703
     K08B15D  C2008 01 30.44145 08 59 12.84 +15 51 02.9          16.9 V EB064703
     K08B15D  C2008 01 30.44230 08 59 12.69 +15 51 14.4          16.9 V EB064703

Observer details:
703 Catalina Sky Survey.  Observer R. E. Hill.  Measurers E. C. Beshore,
    A. Boattini, G. J. Garradd, A. R. Gibbs, A. D. Grauer, R. E. Hill,
    R. A. Kowalski, S. M. Larson, R. H. McNaught.  0.68-m Schmidt + CCD.
734 Farpoint Observatory.  Observer G. Hug.  0.7-m reflector + CCD.

Orbital elements:
2008 BD15                                           PHA, Earth MOID = 0.0108 AU
Epoch 2007 Oct. 27.0 TT = JDT 2454400.5                 MPC
M 191.64705              (2000.0)            P               Q
n   0.85751700     Peri.  107.45808     -0.41710587     +0.81035192
a   1.0972550      Node   130.38266     -0.89184043     -0.45214579
e   0.1871624      Incl.   32.70044     +0.17505238     -0.37268478
P   1.15           H   20.7           G   0.15           U   9
Residuals in seconds of arc
080130 703  1.3+  0.7+    080130 703  0.3-  0.4-    080130 734  0.0   0.0
080130 703  0.3-  0.5-    080130 703  0.3-  0.2-    080130 703  0.1+  0.1+
080130 703  0.3-  0.2-    080130 703  0.1-  0.0     080130 703  0.4-  0.1+
080130 703  0.4-  0.2-    080130 734  0.1+  0.2+    080130 703  0.4+  0.0
080130 703  0.0   0.4+    080130 734  0.1-  0.0     080130 703  0.4+  0.2-

Ephemeris:
2008 BD15                a,e,i = 1.10, 0.19, 33                  q = 0.8919
Date    TT    R. A. (2000) Decl.     Delta      r     Elong.  Phase     V
2008 01 25    09 10.43   -01 43.5    0.166    1.139   156.5    20.2    18.1
2008 02 04    08 44.32   +34 47.8    0.130    1.109   161.0    16.8    17.4
2008 02 14    07 30.27   +69 39.5    0.164    1.078   119.7    52.7    18.9
2008 02 24    03 31.43   +81 29.9    0.235    1.047    97.7    69.5    20.1
2008 03 05    00 14.53   +78 59.7    0.310    1.016    85.5    76.7    20.9
2008 03 15    23 12.72   +75 28.5    0.381    0.986    77.7    80.1    21.4
2008 03 25    22 45.58   +72 31.5    0.443    0.959    72.1    81.8    21.7
2008 04 04    22 32.48   +69 45.5    0.492    0.935    68.0    82.8    21.9
2008 04 14    22 28.30   +66 54.0    0.526    0.915    65.0    83.5    22.0
2008 04 24    22 31.51   +63 46.0    0.547    0.901    63.0    84.2    22.1
2008 05 04    22 41.50   +60 16.1    0.552    0.893    61.9    85.0    22.1
2008 05 14    22 57.55   +56 18.3    0.543    0.892    61.7    85.9    22.1
2008 05 24    23 19.17   +51 43.0    0.521    0.898    62.3    86.7    22.1
2008 06 03    23 45.82   +46 17.4    0.491    0.911    63.7    87.3    22.0
2008 06 13    00 16.71   +39 41.8    0.455    0.929    66.0    87.4    21.9
2008 06 23    00 51.09   +31 32.4    0.420    0.952    69.2    86.4    21.7
2008 07 03    01 27.96   +21 32.7    0.389    0.979    73.3    84.3    21.6
2008 07 13    02 05.93   +09 49.4    0.371    1.008    78.2    80.7    21.4
2008 07 23    02 43.67   -02 46.9    0.369    1.039    83.2    76.2    21.3
2008 08 02    03 19.81   -14 58.2    0.385    1.070    87.6    71.4    21.3
2008 08 12    03 53.00   -25 42.4    0.414    1.101    91.0    67.0    21.4
2008 08 22    04 22.32   -34 37.5    0.453    1.131    93.2    63.2    21.5
2008 09 01    04 46.96   -41 54.6    0.497    1.160    94.5    60.2    21.7
2008 09 11    05 06.04   -47 53.4    0.541    1.186    95.3    57.7    21.8
2008 09 21    05 18.79   -52 51.6    0.583    1.211    95.8    55.6    22.0
2008 10 01    05 24.08   -57 01.2    0.620    1.233    96.1    53.9    22.1

Timothy B. Spahr             (C) Copyright 2008 MPC           M.P.E.C. 2008-B64

Read MPEC 2008-B63 Read MPEC 2008-B65


Our Web policy. Index to the CBAT/MPC/ICQ pages.


Valid HTML 4.01!